Miscellaneous Local Product
Issued by NWS Hastings, NE

Home | Current Version | Previous Version | Graphics & Text | Print | Product List | Glossary On
Versions: 1 2 3 4 5 6 7 8 9 10 11 12 13 14 15 16 17 18 19 20 21 22 23 24 25 26 27 28 29 30 31 32 33 34 35 36 37 38 39 40 41 42 43 44 45 46 47 48 49 50
000
AXUS43 KGID 090302
MISGRI

GID CWA HOURLY WEATHER ROUNDUP
NATIONAL WEATHER SERVICE HASTINGS NE
900 PM CST FRI DEC 08 2017

NOTE: "FAIR" INDICATES FEW OR NO CLOUDS BELOW 12,000 FEET WITH NO
SIGNIFICANT WEATHER AND/OR OBSTRUCTIONS TO VISIBILITY.

...SOUTH CENTRAL NEBRASKA...

CITY           SKY/WX    TMP DP  RH WIND       PRES   REMARKS
GRAND ISLAND   CLOUDY    35  23  61 W12       30.00R WCI  27
KEARNEY        CLOUDY    37  21  52 NW13      30.03R WCI  29
HASTINGS       CLOUDY    35  21  56 W12       30.01S WCI  27
ORD            PTCLDY    38  24  57 NW15      29.99S WCI  29
YORK           CLOUDY    30  25  80 W9        29.98S WCI  22
AURORA         CLOUDY    34  23  65 W9        29.99S WCI  26
LEXINGTON      PTCLDY    37  21  53 NW14      30.06R WCI  28
HOLDREGE       CLOUDY    37  23  57 NW12      30.04S WCI  29
HEBRON         PTCLDY    27  21  79 CALM      30.01F

...NEBRASKA PANHANDLE...

CITY           SKY/WX    TMP DP  RH WIND       PRES   REMARKS
CHADRON        CLOUDY    44  20  38 NW14      30.15S
ALLIANCE       CLOUDY    39  17  41 NW12      30.12R WCI  32
SCOTTSBLUFF    CLOUDY    45  15  30 NW20      30.17S
SIDNEY         PTCLDY    43  11  27 NW14      30.15R

...WESTERN AND NORTH CENTRAL NEBRASKA...

CITY           SKY/WX    TMP DP  RH WIND       PRES   REMARKS
VALENTINE      CLOUDY    41  24  51 NW15G25   30.06R
AINSWORTH      CLOUDY    39  25  57 NW24G30   30.03R WCI  28
ONEILL         CLOUDY    37  27  68 NW21G26   29.99R WCI  26
BROKEN BOW     CLEAR     38  23  55 NW16      30.02S WCI  29
IMPERIAL       CLOUDY    37  13  37 NW9       30.13R WCI  30
NORTH PLATTE   CLOUDY    30  19  63 NW5       30.08R WCI  25
MCCOOK         MOCLDY    40  19  43 NW12      30.09R WCI  33

...EASTERN NEBRASKA...

CITY           SKY/WX    TMP DP  RH WIND       PRES   REMARKS
NORFOLK        PTCLDY    31  24  75 W10       29.93S WCI  22
SO SIOUX CITY  CLOUDY    31  25  78 NW15      29.90F WCI  20
TEKAMAH        PTCLDY    26  19  74 W5        29.93F WCI  20
COLUMBUS       CLOUDY    32  24  72 W7        29.97S WCI  26
ALBION         CLOUDY    38  25  60 NW14G20   29.96S WCI  29
OMAHA EPPLEY   MOCLDY    31  22  69 W6        29.95F WCI  25
OFFUTT AFB     CLOUDY    27  21  78 W3        29.94F
MILLARD        PTCLDY    28  24  83 CALM      29.95F
LINCOLN        PTCLDY    29  22  75 CALM      29.98F
NEBRASKA CITY  PTCLDY    28  25  89 W9        29.96F WCI  19
BEATRICE       CLOUDY    25  20  83 W5        29.99F WCI  19
FALLS CITY     PTCLDY    27  22  81 W8        30.00S WCI  19

...NORTHERN KANSAS...

CITY           SKY/WX    TMP DP  RH WIND       PRES   REMARKS
GOODLAND       CLOUDY    42  13  30 NW12      30.14R
HILL CITY      CLOUDY    36  20  52 W7        30.09S WCI  30
NORTON         CLEAR     34  14  44 W8        30.06S WCI  27
PHILLIPSBURG   CLEAR     37  19  48 CALM      30.07S
SMITH CENTER   CLEAR     28  19  69 W3        30.06S
HAYS           CLOUDY    32  19  58 W7        30.08S WCI  26
RUSSELL        CLOUDY    31  21  66 NW9       30.05S WCI  23
CONCORDIA      PTCLDY    29  23  78 W7        30.02F WCI  22
SALINA         CLOUDY    33  24  69 W9        30.06S WCI  25
TOPEKA         CLEAR     31  25  78 W5        30.02F WCI  26



USA.gov is the U.S. government's official web portal to all federal, state and local government web resources and services.